SCP
-0 -0 -0 -0 -0 -0 -0 -0 -0 -0 -0 -0 -0 -0 -0 -0 -0 -0 -0 -0 -0 -0 -0 -0 -0 -0 0 0 -0 -0 -0 -0 -0 0 0 0 0 0 0 0 -0 0 0 0 -0 0 0
-0 -0 -0 -0 -0 -0 -0 -0 -0 -0 -0 -0 -0 -0 -0 -0 -0 -0 -0 -0 -0 -0 -0 -0 -0 0 0 0 -0 -0 -0 -0 -0 -0 0 0 0 0 0 -0 0 -0 0 0 -0 0 0
-0 -0 -0 -0 -0 -0 -0 -0 -0 -0 -0 -0 -0 -0 -0 -0 -0 -0 -0 -0 -0 -0 -0 0 -0 0 -0 -0 0 0 -0 0 -0 -0 -0 0 -0 0 -0 -0 -0 -0 -0 0 0 0 0
-0 -0 -0 -0 -0 -0 -0 -0 -0 -0 -0 -0 -0 -0 -0 -0 -0 -0 -0 -0 -0 -0 0 0 0 0 0 0 0 0 0 0 0 0 -0 -0 -0 -0 0 -0 -0 -0 -0 -0 0 0 0
-0 -0 -0 -0 -0 -0 -0 -0 -0 -0 -0 -0 -0 -0 -0 -0 -0 -0 -0 -0 0 0 0 0 0 0 0 0 0 0 0 0 0 0 0 0 0 0 0 -0 -0 -0 -0 -0 0 0 0
-0 -0 -0 -0 -0 -0 -0 -0 -0 -0 -0 -0 -0 -0 -0 -0 -0 -0 0 0 0 0 0 0 0 0 0 0 0 0 0 0 0 0 0 0 0 0 0 0 0 -0 -0 -0 0 0 0
-0 -0 -0 -0 -0 -0 -0 -0 -0 -0 -0 -0 -0 -0 0 0 0 0 0 0 0 0 0 0 0 0 0 0 0 0 0 0 0 0 0 0 0 -0 -0 0 -0 -0 -0 -0 -0 0 0
-0 -0 -0 -0 -0 -0 0 -0 -0 -0 -0 -0 0 0 0 0 0 0 0 0 0 0 0 0 0 0 0 0 0 0 0 0 0 0 0 0 -0 0 0 0 -0 -0 -0 -0 -0 0 0
0 0 0 0 0 -0 0 0 -0 -0 0 0 0 0 0 0 0 0 0 0 0 0 0 0 0 -0 -0 0 0 0 0 0 0 0 0 0 0 0 0 0 0 -0 -0 -0 0 0 0
0 -0 -0 0 -0 -0 -0 -0 -0 -0 -0 -0 -0 -0 0 -0 0 0 0 0 0 0 0 0 0 0 0 0 0 0 -0 0 0 0 0 0 0 0 0 0 0 0 -0 -0 -0 0 0
-0 -0 0 0 0 -0 -0 -0 -0 -0 -0 -0 -0 -0 0 0 0 0 0 0 0 0 0 0 0 0 0 0 0 0 0 0 0 0 0 0 0 0 0 0 0 -0 -0 -0 0 0 0
0 0 0 0 0 0 -0 -0 -0 -0 -0 -0 -0 -0 0 0 0 0 0 0 0 0 0 0 0 0 0 0 0 0 0 0 0 0 0 0 0 0 0 0 0 0 0 0 0 0 0
0 0 0 0 0 0 -0 -0 -0 -0 -0 -0 -0 -0 0 0 0 0 0 0 0 0 0 0 0 0 0 0 0 0 0 0 0 0 0 0 0 0 0 0 0 0 0 0 0 0 0
0 0 0 0 0 -0 -0 -0 -0 -0 -0 -0 -0 0 0 0 0 0 0 0 0 0 0 0 0 0 0 0 0 0 0 0 0 0 0 0 0 0 0 0 0 0 0 0 0 0 0
0 0 0 0 0 -0 -0 -0 -0 -0 -0 -0 -0 0 0 0 0 0 0 0 0 0 0 0 0 0 0 0 0 0 0 0 0 0 0 0 0 0 0 0 0 0 0 0 0 0 0
0 0 0 0 0 0 -0 -0 -0 -0 -0 -0 0 0 0 0 0 0 0 0 0 0 0 0 0 0 0 0 0 0 0 0 0 0 -0 0 0 -0 0 0 0 0 0 0 0 0 0
0 0 0 0 0 -0 0 -0 -0 -0 -0 -0 0 0 0 0 0 0 0 0 0 0 0 0 0 0 0 0 0 0 0 0 0 0 0 0 0 0 0 0 0 0 0 0 0 0 0
0 -0 -0 -0 -0 -0 -0 -0 -0 -0 -0 0 0 0 0 0 0 0 0 0 0 0 0 0 0 0 0 0 0 0 0 0 0 0 0 0 0 0 0 0 0 0 0 0 0 0 0
0 -0 -0 -0 -0 -0 -0 0 -0 -0 0 0 0 0 0 0 0 0 0 0 0 0 0 0 0 0 0 0 0 0 0 0 0 0 0 0 0 0 0 0 0 0 0 0 0 0 0
0 0 0 0 -0 -0 0 0 0 -0 0 0 0 0 0 0 0 0 0 0 0 0 0 0 0 0 0 0 0 0 0 0 0 0 0 0 0 0 0 0 0 0 0 0 0 0 0
0 0 0 0 0 0 0 0 0 0 0 0 0 0 0 0 0 0 0 0 0 0 0 0 0 0 0 0 0 0 0 0 0 0 0 0 0 0 0 0 0 0 0 0 0 0 0
0 0 0 0 0 0 0 0 0 0 0 0 0 0 0 0 0 0 0 0 0 0 0 0 0 0 0 0 0 0 0 0 0 0 0 0 0 0 0 0 0 0 0 0 0 0 0
0 0 0 0 0 0 0 0 0 0 0 0 0 0 0 0 0 0 0 0 0 0 0 0 0 0 0 0 0 0 0 0 0 0 0 0 0 0 0 0 0 0 0 0 0 0 0
0 0 0 0 0 0 0 0 0 0 0 0 0 0 0 0 0 0 0 0 0 0 0 0 0 0 0 0 0 0 0 0 0 0 0 0 0 0 0 0 0 0 0 0 0 0 0
0 0 0 0 0 0 0 0 0 0 0 0 0 0 0 0 0 0 0 0 0 0 0 0 0 0 0 0 0 0 0 0 0 0 0 0 0 0 0 0 0 0 0 0 0 0 0
0 0 0 0 0 0 0 0 0 0 0 0 0 0 0 0 0 0 0 0 0 0 0 0 0 0 0 0 0 0 0 0 0 0 0 0 0 0 0 0 0 0 0 0 0 0 0
0 0 0 0 0 0 0 0 0 0 0 0 0 0 0 0 0 0 0 0 0 0 0 0 0 0 0 0 0 0 0 0 0 0 0 0 0 0 0 0 0 0 0 0 0 0 0
0 0 0 0 0 0 0 0 0 0 0 0 0 0 0 0 0 0 0 0 0 0 0 0 0 0 0 0 0 0 0 0 0 0 0 0 0 0 0 0 0 0 0 0 0 0 0
0 0 0 0 0 0 0 0 0 0 0 0 0 0 0 0 0 0 0 0 0 0 0 0 0 0 0 0 0 0 0 0 0 0 0 0 0 0 0 0 0 0 0 0 0 0 0
Wind_Speed_500mb
28 27 26 26 25 24 24 24 24 25 26 26 25 25 25 24 24 23 22 21 20 18 15 11 8 7 8 10 10 14 10 24 50 45 40 32 25 10 5 5 4 8 9 4 5 2 6
29 29 28 28 27 26 26 26 26 26 26 27 27 26 26 26 25 24 23 22 20 18 15 11 8 7 9 8 11 14 9 22 52 48 40 32 15 17 6 1 5 7 8 2 6 3 4
32 32 32 31 31 30 29 28 28 28 28 28 28 28 27 27 25 24 23 22 20 17 15 12 11 11 16 19 12 13 13 19 47 49 44 34 8 10 3 1 2 3 1 3 1 4 2
34 34 34 34 34 33 32 31 30 30 30 30 29 29 27 27 25 23 20 21 19 16 15 12 11 11 13 11 19 18 17 24 42 37 29 24 21 6 3 1 3 6 4 7 1 7 4
35 36 36 36 36 35 34 33 32 32 31 31 31 31 29 29 27 21 18 17 16 13 13 12 11 10 10 12 21 23 17 24 31 36 18 14 17 7 4 4 2 5 7 7 8 8 2
38 39 40 40 39 37 36 35 34 33 33 33 33 31 30 28 27 19 14 10 4 4 11 10 13 7 11 5 25 28 21 17 30 30 18 10 5 8 5 9 13 2 5 6 10 2 11
40 43 46 45 42 38 39 38 37 36 36 36 35 34 32 31 25 15 9 7 2 3 16 14 4 4 8 10 20 27 23 25 24 20 16 10 14 25 20 11 3 2 10 18 11 11 11
42 48 52 53 49 42 41 41 41 39 38 38 37 34 31 29 22 1 11 10 4 4 11 20 35 33 23 5 4 17 33 16 19 18 11 11 30 14 10 9 6 5 14 24 8 4 13
42 48 53 55 54 50 47 46 43 42 41 40 39 36 28 24 9 13 9 11 3 10 4 5 12 24 29 20 10 18 43 21 13 12 15 21 2 24 18 12 12 11 21 22 12 12 14
43 49 54 56 58 58 56 52 49 45 43 43 41 37 27 19 6 14 12 6 9 5 4 6 5 4 18 12 9 19 41 26 6 20 11 12 10 12 14 17 16 31 20 26 22 8 11
46 50 54 56 59 61 61 57 53 50 47 45 42 37 25 15 10 13 14 5 5 1 4 5 7 10 25 19 13 23 42 22 14 12 13 9 12 20 25 28 22 19 8 9 4 5 7
47 52 54 56 60 62 63 60 57 54 51 46 43 34 22 13 10 18 19 4 4 5 4 7 9 8 18 9 6 15 23 18 12 8 9 16 3 7 12 11 31 9 10 3 8 4 10
47 52 54 56 60 62 64 61 60 58 56 48 41 26 12 5 8 21 18 11 4 5 3 5 5 10 10 15 8 15 27 27 17 12 17 10 25 15 14 12 7 12 14 8 9 9 14
47 51 54 56 59 60 64 62 60 58 59 48 35 14 4 9 19 14 20 4 7 2 2 3 2 6 16 16 11 10 24 24 22 6 4 8 7 17 19 30 16 22 21 11 14 13 9
45 52 56 58 57 62 63 60 60 58 60 46 23 9 10 11 20 14 9 5 3 5 3 8 0 5 11 9 10 11 20 30 26 34 17 9 9 5 16 11 22 13 12 2 6 2 8
44 53 58 55 60 62 63 62 61 60 59 45 13 13 11 14 17 9 2 3 3 5 7 2 2 2 9 14 13 18 16 6 17 29 46 10 16 16 20 13 6 13 21 9 5 18 22
45 54 55 55 59 63 64 64 62 61 57 43 4 7 9 16 8 3 3 5 6 10 8 5 2 3 4 5 8 11 16 7 4 7 29 19 14 8 5 13 22 10 9 4 2 6 19
44 52 54 54 58 62 64 61 61 60 56 42 7 2 9 6 1 3 5 5 5 5 5 2 3 6 5 4 8 9 9 4 7 9 15 16 9 14 26 2 4 10 21 18 15 10 4
42 50 53 53 56 60 62 58 55 53 53 47 13 5 2 1 3 3 1 4 5 6 6 6 3 3 2 5 7 6 8 5 11 5 11 15 8 8 9 9 6 12 17 29 17 8 24
40 47 52 53 55 58 58 54 50 48 42 36 11 2 8 7 8 3 2 0 3 5 3 7 5 1 3 4 1 6 10 4 5 5 3 9 7 10 19 12 4 10 11 17 31 18 19
42 48 52 52 52 54 54 50 46 44 38 23 13 5 5 5 6 4 3 1 3 3 4 7 3 8 5 5 3 6 5 3 2 3 5 6 17 8 17 20 16 22 28 18 25 32 21
43 47 50 50 49 52 51 48 46 42 34 16 8 7 7 3 7 7 3 6 6 2 4 2 5 13 4 5 3 7 3 4 6 3 6 4 8 6 10 19 16 23 26 24 26 24 21
43 46 48 48 46 51 46 43 44 41 33 13 13 9 5 3 3 4 1 2 4 7 6 2 11 8 8 3 16 23 21 20 12 6 5 4 9 9 22 13 20 30 25 33 31 22 24
42 45 47 43 40 47 41 37 39 38 33 22 13 9 5 3 5 4 3 6 9 8 8 14 20 6 3 29 21 9 12 18 16 23 16 7 6 6 13 14 33 15 5 16 20 27 25
42 45 43 40 38 41 37 34 34 33 30 21 12 7 4 6 7 13 8 10 13 12 12 14 15 7 24 14 6 8 8 8 18 28 27 23 17 14 18 24 31 30 23 8 7 11 10
44 42 40 35 33 34 31 30 29 29 27 20 9 7 3 7 4 8 5 5 6 6 7 7 8 17 8 4 6 12 14 10 10 8 6 12 15 18 15 25 34 20 33 5 3 24 14
43 40 33 31 31 29 28 28 26 25 25 22 8 8 5 7 10 8 9 4 3 3 6 9 11 6 2 6 14 18 21 7 18 26 14 10 8 26 25 23 18 5 14 4 20 5 22
40 33 26 30 28 26 26 27 23 20 23 19 14 13 8 10 29 26 22 17 11 9 6 6 11 4 4 8 6 6 7 7 9 13 13 21 13 13 10 16 25 11 5 9 12 16 20
31 20 25 29 25 25 26 23 19 17 19 21 11 15 19 20 23 36 47 43 31 28 9 7 5 5 5 3 4 3 5 5 4 14 4 11 13 10 12 7 3 6 14 25 16 18 25
Wind_Direction_500mb
24 22 18 15 11 6 1 356 350 346 343 340 334 329 324 318 314 312 310 310 313 315 321 315 300 271 259 250 233 182 195 191 186 183 199 184 173 190 243 223 246 243 310 208 228 330 212
25 23 19 16 12 8 3 358 354 352 348 343 338 332 324 317 311 308 307 304 305 303 307 302 281 264 249 255 205 197 190 190 194 186 185 186 203 206 287 253 294 314 270 283 26 91 150
27 25 22 18 15 12 7 3 0 357 352 348 344 339 331 321 313 307 303 298 299 292 287 281 264 259 260 235 198 199 182 193 191 193 187 188 188 185 222 300 337 56 349 270 322 174 151
28 25 22 19 16 14 10 8 5 1 355 350 346 343 336 328 317 309 301 298 296 281 270 258 251 256 253 217 197 182 181 173 184 187 201 205 203 252 245 350 44 339 22 343 104 186 144
23 18 14 11 8 5 4 3 2 360 354 349 345 342 338 330 322 318 305 301 296 273 246 232 232 234 261 218 192 179 176 184 178 182 184 175 179 200 166 180 196 31 306 296 310 194 153
20 17 14 9 6 4 1 357 356 355 351 347 343 340 338 331 325 318 300 291 284 263 221 226 236 269 234 188 184 178 160 163 164 168 162 163 145 193 144 201 242 269 302 270 281 181 227
24 20 13 9 4 -0 2 1 358 355 350 345 342 339 337 332 328 310 265 196 228 263 218 209 194 195 116 141 171 182 164 146 159 159 178 173 203 211 204 185 145 244 279 277 275 259 248
18 14 11 9 7 6 4 2 358 354 349 344 342 338 337 334 334 268 161 160 121 298 289 256 242 244 233 142 135 197 181 158 161 176 140 167 229 199 190 175 207 235 286 282 286 211 223
16 13 12 14 15 12 6 360 357 354 349 344 341 336 337 334 331 166 170 179 309 334 255 272 232 238 236 228 227 200 176 179 164 155 187 215 246 184 181 181 216 246 263 278 292 318 252
12 10 10 9 8 6 3 0 357 351 346 343 340 333 333 330 282 189 186 193 323 268 295 152 200 201 178 164 212 194 182 173 150 198 170 249 202 146 182 223 231 261 262 264 265 293 308
8 6 5 4 2 359 357 355 354 351 344 340 338 330 325 310 249 206 185 228 313 213 167 138 121 160 167 183 130 184 186 187 192 168 192 217 196 196 233 240 199 247 208 238 250 279 281
4 2 1 359 358 357 355 353 352 350 345 340 338 327 318 301 221 190 187 185 140 244 134 128 122 158 160 196 147 137 175 193 175 162 226 254 242 209 233 191 196 118 199 110 75 165 241
2 1 359 357 356 356 354 353 351 350 346 344 340 330 323 260 179 177 179 168 221 225 335 77 99 158 175 182 165 174 177 188 186 196 231 241 238 231 200 223 180 211 225 231 223 213 269
357 357 356 355 353 354 353 350 350 353 349 348 347 348 38 141 158 158 160 155 225 87 -0 12 40 161 191 168 199 157 174 192 215 150 145 229 236 198 182 216 218 201 224 227 255 248 276
352 354 355 353 354 354 354 354 352 355 352 350 356 94 73 146 160 153 161 200 252 200 326 331 328 164 197 191 206 170 192 210 208 202 217 209 247 204 206 175 205 168 202 277 209 97 248
350 354 355 356 355 355 355 354 353 355 355 350 15 114 63 126 149 135 144 245 255 246 310 260 261 254 184 179 186 190 177 190 219 208 217 223 267 257 269 160 95 225 143 195 208 256 263
349 352 352 353 353 354 354 353 352 353 356 354 52 130 110 127 134 116 212 214 267 264 253 258 245 268 252 207 197 175 182 164 237 150 200 209 235 223 199 212 216 168 207 77 250 256 272
347 350 351 352 353 353 353 352 351 352 357 5 22 113 159 150 147 37 160 203 309 312 359 304 245 258 260 222 198 202 165 200 343 184 161 188 207 243 234 244 285 246 260 215 248 213 235
343 347 348 349 350 352 352 354 354 355 358 3 4 2 62 99 232 133 297 275 278 329 339 350 306 1 254 234 219 193 168 150 14 158 167 169 210 249 233 155 146 223 209 225 236 248 241
341 344 346 347 349 351 352 354 356 355 358 359 0 320 26 79 70 72 20 5 272 333 276 353 295 318 319 193 43 186 172 187 339 68 63 177 180 252 267 311 10 248 231 224 231 231 232
336 342 346 345 346 348 349 351 354 356 356 1 17 54 24 356 68 20 261 307 246 295 352 2 185 41 321 252 213 211 196 236 222 51 96 225 254 216 261 270 259 262 268 231 220 244 225
334 339 344 344 344 346 347 348 352 356 359 13 23 3 346 295 304 277 213 192 221 268 279 267 305 330 332 216 351 235 285 197 228 183 180 163 222 188 263 275 274 265 266 270 236 232 253
331 335 336 339 340 344 344 345 350 355 7 26 11 356 350 328 323 265 215 163 173 353 239 288 6 304 240 80 317 290 271 286 288 278 221 239 184 206 260 267 293 272 250 250 248 235 235
324 325 327 330 333 339 341 343 347 353 1 10 4 353 333 290 275 257 300 336 283 298 281 289 321 273 6 324 311 274 245 254 252 255 244 212 204 206 264 261 255 264 289 287 268 274 252
316 321 324 326 330 336 336 340 345 349 357 360 7 10 354 288 289 284 281 264 289 284 257 257 276 296 311 322 276 255 233 245 236 233 230 226 234 237 241 242 265 266 279 311 357 304 28
311 317 320 320 324 329 330 336 344 344 355 353 330 349 324 298 220 265 299 305 301 299 281 250 288 305 297 248 212 234 234 232 217 187 62 201 234 234 226 247 255 260 246 136 181 263 13
306 311 313 314 321 324 325 330 336 337 346 357 339 319 318 283 277 226 231 255 212 238 273 298 338 336 357 211 232 239 243 244 238 239 209 193 191 221 229 245 259 281 316 144 220 285 345
304 304 306 314 316 318 322 324 323 326 332 344 332 281 306 271 278 256 248 239 247 232 254 333 301 192 247 228 238 211 239 209 246 242 222 216 221 228 220 234 250 10 170 262 356 323 323
292 290 311 310 314 321 325 327 320 322 325 333 342 305 281 263 266 279 274 261 241 239 242 232 300 304 280 253 225 264 245 234 260 244 184 230 231 235 223 240 137 7 336 314 279 295 315
Wind_Speed_850mb
28 27 26 26 25 24 24 24 24 25 26 26 25 25 25 24 24 23 22 21 20 18 15 11 8 7 8 10 10 14 10 24 50 45 40 32 25 10 5 5 4 8 9 4 5 2 6
29 29 28 28 27 26 26 26 26 26 26 27 27 26 26 26 25 24 23 22 20 18 15 11 8 7 9 8 11 14 9 22 52 48 40 32 15 17 6 1 5 7 8 2 6 3 4
32 32 32 31 31 30 29 28 28 28 28 28 28 28 27 27 25 24 23 22 20 17 15 12 11 11 16 19 12 13 13 19 47 49 44 34 8 10 3 1 2 3 1 3 1 4 2
34 34 34 34 34 33 32 31 30 30 30 30 29 29 27 27 25 23 20 21 19 16 15 12 11 11 13 11 19 18 17 24 42 37 29 24 21 6 3 1 3 6 4 7 1 7 4
35 36 36 36 36 35 34 33 32 32 31 31 31 31 29 29 27 21 18 17 16 13 13 12 11 10 10 12 21 23 17 24 31 36 18 14 17 7 4 4 2 5 7 7 8 8 2
38 39 40 40 39 37 36 35 34 33 33 33 33 31 30 28 27 19 14 10 4 4 11 10 13 7 11 5 25 28 21 17 30 30 18 10 5 8 5 9 13 2 5 6 10 2 11
40 43 46 45 42 38 39 38 37 36 36 36 35 34 32 31 25 15 9 7 2 3 16 14 4 4 8 10 20 27 23 25 24 20 16 10 14 25 20 11 3 2 10 18 11 11 11
42 48 52 53 49 42 41 41 41 39 38 38 37 34 31 29 22 1 11 10 4 4 11 20 35 33 23 5 4 17 33 16 19 18 11 11 30 14 10 9 6 5 14 24 8 4 13
42 48 53 55 54 50 47 46 43 42 41 40 39 36 28 24 9 13 9 11 3 10 4 5 12 24 29 20 10 18 43 21 13 12 15 21 2 24 18 12 12 11 21 22 12 12 14
43 49 54 56 58 58 56 52 49 45 43 43 41 37 27 19 6 14 12 6 9 5 4 6 5 4 18 12 9 19 41 26 6 20 11 12 10 12 14 17 16 31 20 26 22 8 11
46 50 54 56 59 61 61 57 53 50 47 45 42 37 25 15 10 13 14 5 5 1 4 5 7 10 25 19 13 23 42 22 14 12 13 9 12 20 25 28 22 19 8 9 4 5 7
47 52 54 56 60 62 63 60 57 54 51 46 43 34 22 13 10 18 19 4 4 5 4 7 9 8 18 9 6 15 23 18 12 8 9 16 3 7 12 11 31 9 10 3 8 4 10
47 52 54 56 60 62 64 61 60 58 56 48 41 26 12 5 8 21 18 11 4 5 3 5 5 10 10 15 8 15 27 27 17 12 17 10 25 15 14 12 7 12 14 8 9 9 14
47 51 54 56 59 60 64 62 60 58 59 48 35 14 4 9 19 14 20 4 7 2 2 3 2 6 16 16 11 10 24 24 22 6 4 8 7 17 19 30 16 22 21 11 14 13 9
45 52 56 58 57 62 63 60 60 58 60 46 23 9 10 11 20 14 9 5 3 5 3 8 0 5 11 9 10 11 20 30 26 34 17 9 9 5 16 11 22 13 12 2 6 2 8
44 53 58 55 60 62 63 62 61 60 59 45 13 13 11 14 17 9 2 3 3 5 7 2 2 2 9 14 13 18 16 6 17 29 46 10 16 16 20 13 6 13 21 9 5 18 22
45 54 55 55 59 63 64 64 62 61 57 43 4 7 9 16 8 3 3 5 6 10 8 5 2 3 4 5 8 11 16 7 4 7 29 19 14 8 5 13 22 10 9 4 2 6 19
44 52 54 54 58 62 64 61 61 60 56 42 7 2 9 6 1 3 5 5 5 5 5 2 3 6 5 4 8 9 9 4 7 9 15 16 9 14 26 2 4 10 21 18 15 10 4
42 50 53 53 56 60 62 58 55 53 53 47 13 5 2 1 3 3 1 4 5 6 6 6 3 3 2 5 7 6 8 5 11 5 11 15 8 8 9 9 6 12 17 29 17 8 24
40 47 52 53 55 58 58 54 50 48 42 36 11 2 8 7 8 3 2 0 3 5 3 7 5 1 3 4 1 6 10 4 5 5 3 9 7 10 19 12 4 10 11 17 31 18 19
42 48 52 52 52 54 54 50 46 44 38 23 13 5 5 5 6 4 3 1 3 3 4 7 3 8 5 5 3 6 5 3 2 3 5 6 17 8 17 20 16 22 28 18 25 32 21
43 47 50 50 49 52 51 48 46 42 34 16 8 7 7 3 7 7 3 6 6 2 4 2 5 13 4 5 3 7 3 4 6 3 6 4 8 6 10 19 16 23 26 24 26 24 21
43 46 48 48 46 51 46 43 44 41 33 13 13 9 5 3 3 4 1 2 4 7 6 2 11 8 8 3 16 23 21 20 12 6 5 4 9 9 22 13 20 30 25 33 31 22 24
42 45 47 43 40 47 41 37 39 38 33 22 13 9 5 3 5 4 3 6 9 8 8 14 20 6 3 29 21 9 12 18 16 23 16 7 6 6 13 14 33 15 5 16 20 27 25
42 45 43 40 38 41 37 34 34 33 30 21 12 7 4 6 7 13 8 10 13 12 12 14 15 7 24 14 6 8 8 8 18 28 27 23 17 14 18 24 31 30 23 8 7 11 10
44 42 40 35 33 34 31 30 29 29 27 20 9 7 3 7 4 8 5 5 6 6 7 7 8 17 8 4 6 12 14 10 10 8 6 12 15 18 15 25 34 20 33 5 3 24 14
43 40 33 31 31 29 28 28 26 25 25 22 8 8 5 7 10 8 9 4 3 3 6 9 11 6 2 6 14 18 21 7 18 26 14 10 8 26 25 23 18 5 14 4 20 5 22
40 33 26 30 28 26 26 27 23 20 23 19 14 13 8 10 29 26 22 17 11 9 6 6 11 4 4 8 6 6 7 7 9 13 13 21 13 13 10 16 25 11 5 9 12 16 20
31 20 25 29 25 25 26 23 19 17 19 21 11 15 19 20 23 36 47 43 31 28 9 7 5 5 5 3 4 3 5 5 4 14 4 11 13 10 12 7 3 6 14 25 16 18 25
Wind_Direction_850mb
24 22 18 15 11 6 1 356 350 346 343 340 334 329 324 318 314 312 310 310 313 315 321 315 300 271 259 250 233 182 195 191 186 183 199 184 173 190 243 223 246 243 310 208 228 330 212
25 23 19 16 12 8 3 358 354 352 348 343 338 332 324 317 311 308 307 304 305 303 307 302 281 264 249 255 205 197 190 190 194 186 185 186 203 206 287 253 294 314 270 283 26 91 150
27 25 22 18 15 12 7 3 0 357 352 348 344 339 331 321 313 307 303 298 299 292 287 281 264 259 260 235 198 199 182 193 191 193 187 188 188 185 222 300 337 56 349 270 322 174 151
28 25 22 19 16 14 10 8 5 1 355 350 346 343 336 328 317 309 301 298 296 281 270 258 251 256 253 217 197 182 181 173 184 187 201 205 203 252 245 350 44 339 22 343 104 186 144
23 18 14 11 8 5 4 3 2 360 354 349 345 342 338 330 322 318 305 301 296 273 246 232 232 234 261 218 192 179 176 184 178 182 184 175 179 200 166 180 196 31 306 296 310 194 153
20 17 14 9 6 4 1 357 356 355 351 347 343 340 338 331 325 318 300 291 284 263 221 226 236 269 234 188 184 178 160 163 164 168 162 163 145 193 144 201 242 269 302 270 281 181 227
24 20 13 9 4 -0 2 1 358 355 350 345 342 339 337 332 328 310 265 196 228 263 218 209 194 195 116 141 171 182 164 146 159 159 178 173 203 211 204 185 145 244 279 277 275 259 248
18 14 11 9 7 6 4 2 358 354 349 344 342 338 337 334 334 268 161 160 121 298 289 256 242 244 233 142 135 197 181 158 161 176 140 167 229 199 190 175 207 235 286 282 286 211 223
16 13 12 14 15 12 6 360 357 354 349 344 341 336 337 334 331 166 170 179 309 334 255 272 232 238 236 228 227 200 176 179 164 155 187 215 246 184 181 181 216 246 263 278 292 318 252
12 10 10 9 8 6 3 0 357 351 346 343 340 333 333 330 282 189 186 193 323 268 295 152 200 201 178 164 212 194 182 173 150 198 170 249 202 146 182 223 231 261 262 264 265 293 308
8 6 5 4 2 359 357 355 354 351 344 340 338 330 325 310 249 206 185 228 313 213 167 138 121 160 167 183 130 184 186 187 192 168 192 217 196 196 233 240 199 247 208 238 250 279 281
4 2 1 359 358 357 355 353 352 350 345 340 338 327 318 301 221 190 187 185 140 244 134 128 122 158 160 196 147 137 175 193 175 162 226 254 242 209 233 191 196 118 199 110 75 165 241
2 1 359 357 356 356 354 353 351 350 346 344 340 330 323 260 179 177 179 168 221 225 335 77 99 158 175 182 165 174 177 188 186 196 231 241 238 231 200 223 180 211 225 231 223 213 269
357 357 356 355 353 354 353 350 350 353 349 348 347 348 38 141 158 158 160 155 225 87 -0 12 40 161 191 168 199 157 174 192 215 150 145 229 236 198 182 216 218 201 224 227 255 248 276
352 354 355 353 354 354 354 354 352 355 352 350 356 94 73 146 160 153 161 200 252 200 326 331 328 164 197 191 206 170 192 210 208 202 217 209 247 204 206 175 205 168 202 277 209 97 248
350 354 355 356 355 355 355 354 353 355 355 350 15 114 63 126 149 135 144 245 255 246 310 260 261 254 184 179 186 190 177 190 219 208 217 223 267 257 269 160 95 225 143 195 208 256 263
349 352 352 353 353 354 354 353 352 353 356 354 52 130 110 127 134 116 212 214 267 264 253 258 245 268 252 207 197 175 182 164 237 150 200 209 235 223 199 212 216 168 207 77 250 256 272
347 350 351 352 353 353 353 352 351 352 357 5 22 113 159 150 147 37 160 203 309 312 359 304 245 258 260 222 198 202 165 200 343 184 161 188 207 243 234 244 285 246 260 215 248 213 235
343 347 348 349 350 352 352 354 354 355 358 3 4 2 62 99 232 133 297 275 278 329 339 350 306 1 254 234 219 193 168 150 14 158 167 169 210 249 233 155 146 223 209 225 236 248 241
341 344 346 347 349 351 352 354 356 355 358 359 0 320 26 79 70 72 20 5 272 333 276 353 295 318 319 193 43 186 172 187 339 68 63 177 180 252 267 311 10 248 231 224 231 231 232
336 342 346 345 346 348 349 351 354 356 356 1 17 54 24 356 68 20 261 307 246 295 352 2 185 41 321 252 213 211 196 236 222 51 96 225 254 216 261 270 259 262 268 231 220 244 225
334 339 344 344 344 346 347 348 352 356 359 13 23 3 346 295 304 277 213 192 221 268 279 267 305 330 332 216 351 235 285 197 228 183 180 163 222 188 263 275 274 265 266 270 236 232 253
331 335 336 339 340 344 344 345 350 355 7 26 11 356 350 328 323 265 215 163 173 353 239 288 6 304 240 80 317 290 271 286 288 278 221 239 184 206 260 267 293 272 250 250 248 235 235
324 325 327 330 333 339 341 343 347 353 1 10 4 353 333 290 275 257 300 336 283 298 281 289 321 273 6 324 311 274 245 254 252 255 244 212 204 206 264 261 255 264 289 287 268 274 252
316 321 324 326 330 336 336 340 345 349 357 360 7 10 354 288 289 284 281 264 289 284 257 257 276 296 311 322 276 255 233 245 236 233 230 226 234 237 241 242 265 266 279 311 357 304 28
311 317 320 320 324 329 330 336 344 344 355 353 330 349 324 298 220 265 299 305 301 299 281 250 288 305 297 248 212 234 234 232 217 187 62 201 234 234 226 247 255 260 246 136 181 263 13
306 311 313 314 321 324 325 330 336 337 346 357 339 319 318 283 277 226 231 255 212 238 273 298 338 336 357 211 232 239 243 244 238 239 209 193 191 221 229 245 259 281 316 144 220 285 345
304 304 306 314 316 318 322 324 323 326 332 344 332 281 306 271 278 256 248 239 247 232 254 333 301 192 247 228 238 211 239 209 246 242 222 216 221 228 220 234 250 10 170 262 356 323 323
292 290 311 310 314 321 325 327 320 322 325 333 342 305 281 263 266 279 274 261 241 239 242 232 300 304 280 253 225 264 245 234 260 244 184 230 231 235 223 240 137 7 336 314 279 295 315